User: anonymous
Location: Santa Barbara
(34.4500°N, 119.7700°W)
Time: 05:19:50
(UTC-07:00)
Language:

Cosmos 1626 Rocket - Orbit

View from above orbital plane
View from above orbital plane
View from above satellite
View from above satellite

Ground track
Ground track

The orbit data is extracted from the following two-line orbital elements,

1 15495U 85009B   14209.13557820  .00000189  00000-0  20172-4 0  8378
2 15495 082.5243 095.4472 0019979 205.6120 154.4107 14.83246192593539
Epoch (UTC): 28 July 2014 03:15:13
Eccentricity: 0.0019979
inclination: 82.5243°
perigee height: 605 km
apogee height: 633 km
right ascension of ascending node: 95.4472°
argument of perigee: 205.6120°
revolutions per day: 14.83246192
mean anomaly at epoch: 154.4107°
orbit number at epoch: 59353

The dashed part of the orbit path shows where the satellite is in the earth's shadow,  

DLR